Location: Sevilla
(37.3933°N, 5.9839°W)
Time: 05:21:29
(UTC+02:00)

Vanguard 3 - Pass Details

Date: 02 July 2024
Orbit: 508 x 3231 km, 33.4° (Epoch: 15 July)

Event Time Altitude Azimuth Distance (km) Brightness Sun altitude
Rises 04:55:49 0° 200° (SSW) 6,986 - -20.3°
Reaches altitude 10° 05:01:45 10° 189° (S) 6,115 - -19.6°
Exits shadow 05:03:15 13° 186° (S) 5,912 11.0 -19.4°
Maximum altitude 05:16:05 26° 142° (SE) 4,761 10.9 -17.8°
Drops below altitude 10° 05:28:32 10° 94° (E) 5,338 11.8 -16.2°
Sets 05:33:06 0° 83° (E) 5,984 12.4 -15.6°
